Weather History for Palma de Mallorca, Spain

Change the Weather History Date:

Wednesday, October 16, 2013

  Actual Average Record
Temperature  
Mean Temperature 73 °F -  
Max Temperature 86 °F 68 °F 86 °F (2013)
Min Temperature 60 °F 50 °F 48 °F (2004)
Cooling Degree Days 8    
Growing Degree Days 23 (Base 50)    
Moisture  
Dew Point 61 °F    
Average Humidity 69    
Maximum Humidity 94    
Minimum Humidity 36    
Precipitation  
Precipitation 0.00 in 0.07 in - ()
Sea Level Pressure  
Sea Level Pressure 30.04 in    
Wind  
Wind Speed 4 mph ()    
Max Wind Speed 14 mph    
Max Gust Speed -    
Visibility 7.3 miles    
Events      
Averages and records for this station are not official NWS values.
T = Trace of Precipitation, MM = Missing Value Source: Averaged Metar Reports

Daily Weather History Graph

Daily Weather History Graph

Search for Another Location

Airport:

Trip Planner

Search our weather history database for the weather conditions in past years. The results will help you decide how hot, cold, wet, or windy it might be!

Date:

Astronomy

Oct. 16, 2013 Rise Set
Actual Time 8:00 AM CEST 7:08 PM CEST
Civil Twilight 7:32 AM CEST 7:35 PM CEST
Nautical Twilight 7:01 AM CEST 8:06 PM CEST
Astronomical Twilight 6:30 AM CEST 8:37 PM CEST
Moon 5:38 PM CEST (10/16) 5:11 AM CEST (10/16)
Length of Visible Light 12h 02m
Length of Day
11h 08m
Waxing Gibbous, 92% of the Moon is Illuminated
Oct 16
Waxing Gibbous
Oct 19
Full
Oct 27
Last Quarter
Nov 3
New
Nov 10
First Quarter

Hourly Weather History & Observations

Time (CEST) Temp. Heat Index Dew Point Humidity Pressure Visibility Wind Dir Wind Speed Gust Speed Precip Events Conditions
12:00 AM 71.6 °F - 64.4 °F 78% 30.04 in 6.2 mi WSW 6.9 mph - N/A   Partly Cloudy
12:30 AM 69.8 °F - 62.6 °F 78% 30.04 in 6.2 mi WSW 5.8 mph - N/A   Partly Cloudy
1:00 AM 66.2 °F - 60.8 °F 83% 30.04 in 6.2 mi Variable 2.3 mph - N/A   Partly Cloudy
1:30 AM 69.8 °F - 64.4 °F 83% 30.04 in 6.2 mi WSW 5.8 mph - N/A   Partly Cloudy
2:00 AM 66 °F - 62 °F 82% 30.06 in 9 mi NNE 2.3 mph - -   Scattered Clouds
2:00 AM 66.2 °F - 60.8 °F 83% 30.04 in 6.2 mi Calm Calm - N/A   Partly Cloudy
2:30 AM 66.2 °F - 62.6 °F 88% 30.04 in 6.2 mi West 1.2 mph - N/A   Partly Cloudy
3:00 AM 64.4 °F - 62.6 °F 94% 30.04 in 6.2 mi Calm Calm - N/A   Partly Cloudy
3:30 AM 64.4 °F - 62.6 °F 94% 30.04 in 6.2 mi Calm Calm - N/A   Partly Cloudy
4:00 AM 64.4 °F - 60.8 °F 88% 30.04 in 6.2 mi Variable 1.2 mph - N/A   Partly Cloudy
4:30 AM 64.4 °F - 60.8 °F 88% 30.04 in 6.2 mi Calm Calm - N/A   Partly Cloudy
5:00 AM 62.6 °F - 60.8 °F 94% 30.04 in 6.2 mi Calm Calm - N/A   Partly Cloudy
5:30 AM 62.6 °F - 60.8 °F 94% 30.04 in 6.2 mi NE 1.2 mph - N/A   Partly Cloudy
6:00 AM 62.6 °F - 60.8 °F 94% 30.04 in 6.2 mi Calm Calm - N/A   Partly Cloudy
6:30 AM 62.6 °F - 60.8 °F 94% 30.04 in 6.2 mi Calm Calm - N/A   Partly Cloudy
7:00 AM 62.6 °F - 60.8 °F 94% 30.04 in 6.2 mi Calm Calm - N/A   Partly Cloudy
7:30 AM 62.6 °F - 60.8 °F 94% 30.04 in 6.2 mi Variable 1.2 mph - N/A   Partly Cloudy
8:00 AM 62 °F - 60 °F 92% 30.04 in 11 mi Calm Calm - -   Clear
8:00 AM 62.6 °F - 60.8 °F 94% 30.04 in - Variable 1.2 mph - N/A   Clear
8:30 AM 60.8 °F - 59.0 °F 94% 30.04 in - Variable 1.2 mph - N/A   Clear
9:00 AM 66.2 °F - 64.4 °F 94% 30.04 in - Calm Calm - N/A   Clear
9:30 AM 69.8 °F - 66.2 °F 88% 30.04 in - Calm Calm - N/A   Clear
10:00 AM 75.2 °F - 68.0 °F 78% 30.06 in - Calm Calm - N/A   Clear
10:30 AM 78.8 °F - 62.6 °F 57% 30.06 in - Variable 2.3 mph - N/A   Clear
11:00 AM 80.6 °F 81.5 °F 60.8 °F 51% 30.06 in - West 8.1 mph - N/A   Clear
11:30 AM 82.4 °F 82.9 °F 60.8 °F 48% 30.06 in - West 5.8 mph - N/A   Clear
12:00 PM 82.4 °F 83.4 °F 62.6 °F 51% 30.06 in - WSW 6.9 mph - N/A   Clear
12:30 PM 82.4 °F 83.9 °F 64.4 °F 54% 30.06 in - SW 10.4 mph - N/A   Clear
1:00 PM 84.2 °F 85.0 °F 62.6 °F 48% 30.06 in - WSW 9.2 mph - N/A   Clear
1:30 PM 84.2 °F 85.0 °F 62.6 °F 48% 30.04 in - SW 11.5 mph - N/A   Clear
2:00 PM 85 °F - 62 °F 36% 30.04 in 19 mi WSW 13.8 mph - -   Clear
2:00 PM 84.2 °F 85.0 °F 62.6 °F 48% 30.04 in - WSW 11.5 mph - N/A   Clear
2:30 PM 84.2 °F 83.8 °F 59.0 °F 42% 30.04 in 6.2 mi WSW 12.7 mph - N/A   Partly Cloudy
3:00 PM 84.2 °F 84.4 °F 60.8 °F 45% 30.01 in 6.2 mi WSW 11.5 mph - N/A   Partly Cloudy
3:30 PM 84.2 °F 84.4 °F 60.8 °F 45% 30.01 in 6.2 mi SW 10.4 mph - N/A   Partly Cloudy
4:00 PM 84.2 °F 85.6 °F 64.4 °F 51% 30.01 in 6.2 mi SW 11.5 mph - N/A   Partly Cloudy
4:30 PM 82.4 °F 83.9 °F 64.4 °F 54% 30.01 in 6.2 mi WSW 12.7 mph - N/A   Partly Cloudy
5:00 PM 82.4 °F 83.9 °F 64.4 °F 54% 30.01 in 6.2 mi WSW 10.4 mph - N/A   Partly Cloudy
5:30 PM 84.2 °F 85.6 °F 64.4 °F 51% 30.01 in 6.2 mi WSW 8.1 mph - N/A   Partly Cloudy
6:00 PM 82.4 °F 83.9 °F 64.4 °F 54% 30.01 in 6.2 mi SW 9.2 mph - N/A   Partly Cloudy
6:30 PM 82.4 °F 82.0 °F 57.2 °F 42% 30.01 in 6.2 mi WSW 6.9 mph - N/A   Partly Cloudy
7:00 PM 80.6 °F 80.8 °F 57.2 °F 45% 30.01 in - WNW 5.8 mph - N/A   Clear
7:30 PM 77.0 °F - 59.0 °F 54% 30.04 in - Variable 2.3 mph - N/A   Clear
8:00 PM 76 °F - 57 °F 41% 30.05 in 17 mi West 3.5 mph - -   Clear
8:00 PM 75.2 °F - 57.2 °F 53% 30.04 in - West 4.6 mph - N/A   Clear
8:30 PM 75.2 °F - 59.0 °F 57% 30.06 in - Calm Calm - N/A   Clear
9:00 PM 69.8 °F - 59.0 °F 68% 30.06 in - NE 1.2 mph - N/A   Clear
9:30 PM 69.8 °F - 59.0 °F 68% 30.06 in - East 1.2 mph - N/A   Clear
10:00 PM 68.0 °F - 59.0 °F 73% 30.06 in - Variable 1.2 mph - N/A   Clear
10:30 PM 68.0 °F - 59.0 °F 73% 30.06 in - ENE 4.6 mph - N/A   Clear
11:00 PM 66.2 °F - 59.0 °F 78% 30.09 in - Variable 1.2 mph - N/A   Clear
11:30 PM 66.2 °F - 59.0 °F 78% 30.09 in - NE 1.2 mph - N/A   Clear